Regional Weather Roundup
Issued by NWS

Home | Current Version | Previous Version | Text Only | Print | Product List | Glossary Off
Versions: 1 2 3 4 5 6 7 8 9 10 11 12 13 14 15 16 17 18 19 20 21 22 23 24 25 26 27 28 29 30 31 32 33 34 35 36 37 38 39 40 41 42 43 44 45 46 47 48 49 50

000
ASUS43 KLSX 231807
RWRMO

WEATHER SUMMARY FOR MISSOURI
NATIONAL WEATHER SERVICE SPRINGFIELD MO
100 PM CDT SAT JUL 23 2016

NOTE: "FAIR" INDICATES FEW OR NO CLOUDS BELOW 12,000 FEET WITH NO
       SIGNIFICANT WEATHER AND/OR OBSTRUCTIONS TO VISIBILITY.
       CURRENT SKY AND/OR WEATHER CONDITIONS ARE NOT AVAILABLE FOR
       CHILLICOTHE AND FARMINGTON.

MOZ001>031-035>038-043-044-053-054-231900-
...NORTHERN AND WESTERN MISSOURI...

CITY           SKY/WX    TMP DP  RH WIND       PRES   REMARKS
KANSAS CTY INT PTSUNNY   89  75  63 S10       29.92S HX  99
6HR MIN TEMP:  79; 6HR MAX TEMP:  89;

KANSAS C DTWN  CLOUDY    91  72  53 S14       29.90F HX  98
6HR MIN TEMP:  83; 6HR MAX TEMP:  94;

LEE`S SUMMIT   CLOUDY    93  70  46 S15G21    29.94F HX  99
6HR MIN TEMP:  80; 6HR MAX TEMP:  93;

ST JOSEPH      CLOUDY    90  74  59 S14       29.87F HX  99
6HR MIN TEMP:  80; 6HR MAX TEMP:  92;

CHILLICOTHE      N/A     94  78  60 S8        29.92S HX 110
6HR MIN TEMP:  77; 6HR MAX TEMP:  94;

KIRKSVILLE     MOSUNNY   94  75  54 S13       29.95F HX 105
6HR MIN TEMP:  77; 6HR MAX TEMP:  94; 6HR PCP: TRACE;


$$
MOZ066>068-077>081-088>096-101>105-231900-
...SOUTHWEST MISSOURI...

CITY           SKY/WX    TMP DP  RH WIND       PRES   REMARKS
SPRINGFIELD    PTSUNNY   92  70  48 W7        29.99F HX  97
6HR MIN TEMP:  79; 6HR MAX TEMP:  95;

JOPLIN         SUNNY     94  71  47 SW12      29.97F HX 101
6HR MIN TEMP:  79; 6HR MAX TEMP:  95;

BRANSON        MOSUNNY   93  73  52 W5        30.02F HX 102

$$
MOZ032>034-039>042-045>050-055>058-069>072-231900-
...CENTRAL MISSOURI...

CITY           SKY/WX    TMP DP  RH WIND       PRES   REMARKS
COLUMBIA       SUNNY     94  75  54 W6        29.97F HX 105
6HR MIN TEMP:  77; 6HR MAX TEMP:  94;

JEFFERSON CITY MOSUNNY   95  75  52 CALM      29.94F HX 107
6HR MIN TEMP:  75; 6HR MAX TEMP:  95;

ROLLA          MOSUNNY   92  76  59 SW7       29.98F HX 104
6HR MIN TEMP:  77; 6HR MAX TEMP:  93;

SEDALIA        MOSUNNY   95  76  53 SW12      29.97S HX 108
6HR MIN TEMP:  79; 6HR MAX TEMP:  95;

WHITEMAN AFB   MOSUNNY   94  75  52 SW12      29.93F HX 105
OSAGE BEACH    SUNNY     93  75  55 W6        29.98F HX 104

$$
MOZ051-052-059>065-231900-
...EAST CENTRAL MISSOURI...

CITY           SKY/WX    TMP DP  RH WIND       PRES   REMARKS
ST LOUIS INTL  NOT AVBL
SPIRIT OF STL  MOSUNNY   93  75  55 E7        29.95F HX 104
6HR MIN TEMP:  75; 6HR MAX TEMP:  94;

ST CHARLES     SUNNY     90  78  68 E9        29.96F HX 104
6HR MIN TEMP:  76; 6HR MAX TEMP:  90;


$$
MOZ072>076-082>087-097>100-106>115-231900-
...SOUTH CENTRAL AND SOUTHEAST MISSOURI...

CITY           SKY/WX    TMP DP  RH WIND       PRES   REMARKS
CAPE GIRARDEAU MOSUNNY   90  74  59 SE6       29.97S HX  99
6HR MIN TEMP:  74; 6HR MAX TEMP:  90;

FARMINGTON     SUNNY     92  72  51 E7        30.00F HX  99
6HR MIN TEMP:  72; 6HR MAX TEMP:  92;

POPLAR BLUFF   SUNNY     91  73  55 VRB3      29.96F HX  99
6HR MIN TEMP:  76; 6HR MAX TEMP:  91;

WEST PLAINS    MOSUNNY   94  73  50 W5        30.02F HX 103
6HR MIN TEMP:  77; 6HR MAX TEMP:  94;


$$



USA.gov is the U.S. government's official web portal to all federal, state and local government web resources and services.